QPF
0.00 0.00 0.00 0.00 0.00 0.00 0.00 0.00 0.00 0.00 0.00 0.00 0.00 0.00 0.00 0.00 0.02 0.02 0.00 0.00 0.00 0.00 0.00 0.00 0.00 0.00 0.00 0.00 0.00 0.00 0.00 0.00 0.00 0.00 0.00 0.00 0.00 0.03 0.05 0.06 0.03 0.03 0.00
0.00 0.00 0.00 0.00 0.00 0.00 0.00 0.00 0.00 0.00 0.00 0.00 0.00 0.00 0.00 0.00 0.01 0.01 0.01 0.00 0.00 0.00 0.00 0.00 0.00 0.00 0.00 0.00 0.00 0.00 0.00 0.00 0.00 0.00 0.00 0.00 0.00 0.02 0.07 0.09 0.03 0.02 0.00
0.00 0.00 0.00 0.00 0.00 0.00 0.00 0.00 0.00 0.00 0.00 0.00 0.00 0.00 0.00 0.00 0.00 0.01 0.01 0.00 0.00 0.00 0.00 0.00 0.00 0.00 0.00 0.00 0.00 0.00 0.00 0.00 0.00 0.00 0.00 0.00 0.00 0.01 0.06 0.08 0.04 0.02 0.00
0.00 0.00 0.00 0.00 0.00 0.00 0.00 0.00 0.00 0.00 0.00 0.00 0.00 0.00 0.00 0.00 0.00 0.02 0.00 0.00 0.00 0.01 0.01 0.00 0.00 0.00 0.00 0.00 0.00 0.00 0.00 0.00 0.00 0.00 0.00 0.00 0.00 0.00 0.02 0.04 0.01 0.00 0.00
0.00 0.00 0.00 0.00 0.00 0.00 0.00 0.00 0.00 0.00 0.00 0.00 0.00 0.00 0.00 0.00 0.00 0.01 0.00 0.00 0.00 0.01 0.01 0.00 0.00 0.00 0.00 0.00 0.00 0.00 0.00 0.00 0.00 0.00 0.00 0.00 0.00 0.00 0.00 0.04 0.02 0.00 0.00
0.00 0.00 0.00 0.00 0.00 0.00 0.00 0.00 0.00 0.00 0.00 0.00 0.00 0.00 0.00 0.00 0.00 0.00 0.00 0.00 0.00 0.01 0.02 0.00 0.00 0.00 0.00 0.00 0.00 0.00 0.00 0.00 0.00 0.00 0.00 0.00 0.00 0.00 0.01 0.03 0.01 0.00 0.00
0.00 0.00 0.00 0.00 0.00 0.00 0.00 0.00 0.00 0.00 0.00 0.00 0.00 0.00 0.00 0.00 0.00 0.00 0.00 0.00 0.00 0.01 0.03 0.00 0.00 0.00 0.00 0.00 0.00 0.00 0.00 0.00 0.00 0.00 0.00 0.00 0.00 0.00 0.00 0.01 0.00 0.00 0.01
0.00 0.00 0.00 0.00 0.00 0.00 0.00 0.00 0.00 0.00 0.00 0.00 0.00 0.00 0.00 0.00 0.00 0.00 0.00 0.00 0.00 0.00 0.04 0.01 0.00 0.00 0.00 0.00 0.00 0.00 0.00 0.00 0.00 0.00 0.00 0.00 0.00 0.00 0.00 0.01 0.00 0.00 0.00
0.00 0.00 0.00 0.00 0.00 0.00 0.00 0.00 0.00 0.00 0.00 0.00 0.00 0.00 0.00 0.00 0.00 0.00 0.00 0.00 0.00 0.00 0.04 0.01 0.00 0.00 0.00 0.00 0.00 0.00 0.00 0.00 0.00 0.00 0.00 0.00 0.00 0.00 0.00 0.00 0.00 0.00 0.00
0.00 0.00 0.00 0.00 0.00 0.00 0.00 0.00 0.00 0.00 0.00 0.00 0.00 0.00 0.00 0.01 0.00 0.00 0.00 0.00 0.00 0.00 0.01 0.01 0.01 0.00 0.00 0.00 0.00 0.00 0.00 0.00 0.00 0.00 0.00 0.00 0.00 0.00 0.00 0.00 0.00 0.00 0.00
0.00 0.00 0.00 0.00 0.00 0.00 0.00 0.00 0.00 0.00 0.02 0.02 0.03 0.03 0.05 0.04 0.01 0.00 0.00 0.00 0.00 0.00 0.00 0.00 0.00 0.00 0.00 0.00 0.00 0.00 0.00 0.00 0.00 0.00 0.00 0.00 0.00 0.00 0.00 0.00 0.00 0.00 0.00
0.00 0.00 0.00 0.00 0.00 0.00 0.00 0.01 0.01 0.01 0.03 0.02 0.07 0.05 0.05 0.06 0.01 0.01 0.00 0.00 0.00 0.00 0.00 0.00 0.00 0.00 0.00 0.00 0.00 0.00 0.00 0.00 0.00 0.00 0.00 0.00 0.00 0.00 0.00 0.01 0.01 0.01 0.01
0.01 0.01 0.01 0.00 0.00 0.03 0.02 0.02 0.03 0.03 0.03 0.04 0.04 0.04 0.04 0.04 0.01 0.02 0.00 0.00 0.00 0.00 0.00 0.00 0.00 0.00 0.00 0.00 0.00 0.00 0.00 0.00 0.00 0.00 0.00 0.00 0.00 0.00 0.00 0.01 0.01 0.01 0.01
0.00 0.00 0.00 0.01 0.01 0.01 0.02 0.11 0.17 0.14 0.10 0.10 0.07 0.12 0.11 0.08 0.01 0.00 0.00 0.00 0.00 0.00 0.00 0.00 0.01 0.00 0.00 0.00 0.00 0.00 0.00 0.00 0.00 0.00 0.00 0.00 0.00 0.00 0.00 0.00 0.00 0.00 0.00
0.00 0.00 0.00 0.02 0.04 0.03 0.03 0.01 0.04 0.06 0.07 0.12 0.12 0.18 0.19 0.13 0.08 0.06 0.01 0.00 0.01 0.00 0.00 0.00 0.01 0.00 0.00 0.00 0.00 0.00 0.00 0.00 0.00 0.00 0.00 0.00 0.00 0.00 0.00 0.00 0.00 0.00 0.00
0.00 0.00 0.00 0.00 0.00 0.01 0.01 0.02 0.02 0.02 0.05 0.12 0.17 0.15 0.22 0.26 0.15 0.16 0.09 0.04 0.02 0.00 0.00 0.00 0.01 0.00 0.00 0.00 0.00 0.00 0.00 0.00 0.00 0.00 0.00 0.00 0.00 0.00 0.00 0.00 0.00 0.00 0.00
0.00 0.00 0.00 0.00 0.00 0.00 0.00 0.00 0.00 0.00 0.01 0.03 0.10 0.13 0.09 0.23 0.28 0.31 0.29 0.19 0.09 0.06 0.03 0.01 0.00 0.00 0.00 0.00 0.00 0.00 0.00 0.00 0.00 0.00 0.00 0.00 0.00 0.00 0.00 0.00 0.00 0.00 0.00
0.00 0.00 0.00 0.00 0.00 0.00 0.00 0.00 0.00 0.00 0.01 0.06 0.08 0.15 0.21 0.30 0.53 0.85 1.11 0.66 0.26 0.17 0.10 0.08 0.04 0.01 0.01 0.00 0.00 0.00 0.00 0.00 0.00 0.00 0.00 0.00 0.00 0.00 0.00 0.00 0.00 0.00 0.00
0.00 0.00 0.00 0.00 0.00 0.01 0.00 0.00 0.00 0.01 0.00 0.03 0.09 0.15 0.21 0.46 0.62 0.61 0.82 0.47 0.23 0.19 0.16 0.13 0.09 0.06 0.03 0.01 0.00 0.00 0.00 0.00 0.00 0.00 0.00 0.00 0.00 0.00 0.00 0.00 0.00 0.00 0.00
0.00 0.00 0.00 0.00 0.00 0.01 0.00 0.00 0.00 0.02 0.02 0.02 0.04 0.06 0.07 0.07 0.07 0.04 0.03 0.03 0.02 0.06 0.06 0.04 0.07 0.05 0.02 0.01 0.00 0.00 0.00 0.00 0.00 0.00 0.00 0.00 0.00 0.00 0.00 0.00 0.00 0.00 0.00
0.00 0.00 0.00 0.00 0.00 0.00 0.01 0.01 0.01 0.02 0.04 0.05 0.04 0.04 0.07 0.09 0.08 0.04 0.04 0.03 0.01 0.02 0.02 0.04 0.09 0.06 0.03 0.02 0.01 0.00 0.00 0.00 0.00 0.00 0.00 0.00 0.00 0.00 0.00 0.00 0.00 0.00 0.00
0.00 0.00 0.00 0.00 0.00 0.00 0.00 0.00 0.02 0.04 0.04 0.06 0.07 0.04 0.05 0.04 0.04 0.02 0.02 0.01 0.00 0.00 0.00 0.00 0.04 0.04 0.02 0.02 0.01 0.00 0.00 0.00 0.00 0.00 0.00 0.00 0.00 0.00 0.00 0.00 0.00 0.00 0.00
0.00 0.00 0.00 0.00 0.00 0.00 0.00 0.00 0.00 0.01 0.03 0.03 0.03 0.03 0.01 0.00 0.00 0.00 0.00 0.00 0.01 0.01 0.00 0.00 0.01 0.13 0.22 0.08 0.03 0.00 0.00 0.00 0.00 0.00 0.00 0.00 0.00 0.00 0.00 0.00 0.00 0.00 0.00
0.00 0.00 0.00 0.00 0.00 0.00 0.00 0.00 0.00 0.00 0.00 0.00 0.00 0.00 0.00 0.00 0.00 0.00 0.00 0.00 0.01 0.00 0.00 0.00 0.00 0.02 0.25 0.22 0.13 0.02 0.00 0.00 0.00 0.00 0.00 0.00 0.00 0.00 0.00 0.00 0.00 0.00 0.00
0.00 0.00 0.00 0.00 0.00 0.00 0.00 0.00 0.00 0.00 0.00 0.00 0.00 0.00 0.00 0.01 0.00 0.00 0.00 0.00 0.02 0.02 0.02 0.01 0.00 0.00 0.09 0.24 0.17 0.06 0.01 0.00 0.00 0.00 0.00 0.00 0.00 0.00 0.00 0.00 0.00 0.00 0.00
0.00 0.00 0.00 0.00 0.00 0.00 0.00 0.01 0.00 0.00 0.00 0.00 0.00 0.00 0.00 0.01 0.01 0.01 0.01 0.02 0.02 0.02 0.02 0.01 0.01 0.01 0.03 0.12 0.15 0.10 0.02 0.00 0.01 0.00 0.00 0.00 0.00 0.00 0.00 0.00 0.00 0.00 0.00
MSLP
1009.15 1009.73 1010.30 1010.86 1011.35 1011.87 1012.07 1012.25 1012.43 1012.48 1012.58 1012.89 1013.09 1013.18 1013.10 1012.91 1013.04 1013.56 1014.02 1014.52 1014.70 1014.75 1015.02 1015.37 1015.34 1015.50 1015.18 1014.78 1014.42 1014.49 1014.35 1014.42 1013.69 1013.57 1013.71 1014.64 1015.08 1015.53 1016.10 1016.14 1016.48 1016.57 1017.18
1008.19 1008.86 1009.61 1010.27 1010.79 1011.22 1011.59 1011.79 1012.11 1012.29 1012.46 1012.70 1012.94 1013.00 1013.05 1012.93 1012.95 1013.41 1013.82 1014.35 1014.74 1014.72 1015.07 1015.35 1015.50 1015.49 1015.35 1015.22 1014.49 1014.83 1014.91 1014.85 1014.66 1013.97 1014.50 1015.00 1015.50 1015.68 1016.23 1016.49 1016.60 1016.79 1017.17
1007.59 1008.29 1008.87 1009.47 1010.17 1010.50 1010.88 1011.38 1011.65 1011.93 1012.27 1012.38 1012.62 1012.78 1012.75 1012.89 1012.99 1013.22 1013.76 1014.42 1014.87 1014.78 1015.11 1015.43 1015.74 1015.86 1015.93 1015.83 1015.69 1015.57 1015.24 1014.80 1014.60 1014.31 1015.08 1015.41 1016.07 1016.20 1016.44 1016.99 1017.31 1017.69 1017.81
1006.98 1007.79 1008.44 1008.99 1009.50 1010.04 1010.37 1010.80 1011.21 1011.52 1011.84 1012.08 1012.24 1012.30 1012.44 1012.76 1012.87 1013.06 1013.80 1014.54 1014.87 1015.22 1015.47 1015.74 1016.02 1016.04 1016.22 1016.15 1016.13 1015.84 1015.78 1015.19 1014.66 1014.66 1015.04 1015.67 1016.00 1016.24 1016.53 1017.02 1017.60 1018.16 1018.55
1006.58 1007.31 1007.85 1008.37 1008.89 1009.45 1009.83 1010.33 1010.72 1010.96 1011.27 1011.62 1011.89 1011.95 1012.24 1012.44 1012.36 1012.96 1013.75 1014.55 1015.20 1015.53 1015.69 1015.87 1016.30 1016.86 1016.98 1016.92 1016.13 1016.68 1016.52 1016.03 1015.53 1015.20 1015.85 1016.38 1016.90 1016.80 1016.91 1017.41 1017.77 1018.77 1019.12
1006.39 1007.08 1007.59 1008.07 1008.33 1008.82 1009.34 1009.75 1010.19 1010.50 1010.74 1011.01 1011.46 1011.64 1011.86 1011.83 1011.70 1012.64 1013.49 1014.33 1015.10 1015.54 1015.99 1016.41 1016.82 1016.94 1017.28 1017.53 1017.65 1017.76 1017.63 1017.31 1017.16 1016.95 1016.72 1017.31 1017.89 1018.01 1017.67 1018.19 1018.54 1018.64 1019.30
1006.71 1006.98 1007.42 1007.80 1008.10 1008.43 1008.88 1009.19 1009.52 1009.92 1010.28 1010.61 1010.98 1011.27 1011.48 1011.60 1012.27 1013.01 1013.58 1014.12 1015.03 1015.59 1015.93 1016.25 1016.34 1016.76 1017.35 1017.87 1018.04 1017.77 1017.76 1017.90 1017.96 1017.75 1017.95 1018.50 1018.44 1018.71 1018.60 1018.63 1018.81 1019.21 1019.71
1006.66 1007.06 1007.38 1007.76 1007.94 1008.22 1008.52 1008.83 1009.15 1009.44 1009.65 1010.13 1010.59 1010.96 1011.22 1011.37 1012.24 1013.11 1013.63 1014.20 1014.90 1015.50 1015.70 1015.95 1016.07 1017.06 1017.07 1017.41 1017.20 1017.49 1017.83 1018.25 1018.31 1018.07 1018.75 1019.11 1019.04 1018.87 1018.70 1018.78 1019.05 1019.67 1020.11
1006.34 1006.64 1006.96 1007.36 1007.53 1007.85 1008.10 1008.46 1008.81 1009.02 1009.16 1009.63 1010.00 1010.46 1010.85 1011.49 1012.43 1012.89 1013.59 1014.27 1014.88 1015.36 1015.66 1015.92 1016.21 1017.02 1017.50 1017.66 1017.35 1017.42 1017.69 1018.27 1019.13 1019.07 1019.33 1019.64 1019.62 1019.23 1018.74 1018.97 1019.35 1019.55 1020.12
1006.34 1006.39 1006.63 1006.81 1007.08 1007.32 1007.57 1007.94 1008.25 1008.50 1008.71 1009.01 1009.33 1009.64 1010.25 1011.32 1012.46 1012.75 1013.16 1013.49 1014.50 1015.09 1015.68 1015.94 1016.44 1016.85 1017.64 1018.03 1017.73 1017.68 1017.47 1017.83 1018.41 1018.81 1019.44 1019.63 1019.83 1019.59 1019.17 1018.82 1019.01 1018.98 1019.41
1007.21 1006.73 1006.40 1006.47 1006.79 1007.05 1007.25 1007.53 1007.89 1008.12 1008.22 1008.61 1008.82 1009.17 1009.67 1010.53 1012.23 1012.71 1012.75 1012.83 1013.73 1014.54 1015.17 1015.83 1016.10 1016.93 1017.83 1018.35 1018.37 1017.87 1018.21 1018.13 1018.08 1018.19 1018.67 1018.98 1019.18 1019.65 1019.43 1019.18 1019.28 1019.11 1018.99
1007.83 1007.36 1006.96 1006.83 1006.74 1006.47 1007.11 1007.44 1007.64 1007.96 1008.27 1008.44 1008.75 1009.07 1009.36 1010.55 1011.44 1012.47 1012.79 1013.14 1013.24 1014.10 1014.78 1015.33 1015.82 1016.96 1017.71 1018.38 1018.58 1018.45 1018.31 1017.97 1017.38 1017.77 1018.20 1018.55 1019.25 1019.88 1019.82 1020.10 1019.77 1019.86 1019.72
1007.97 1007.44 1007.29 1007.42 1007.28 1007.18 1007.47 1007.97 1008.13 1008.23 1008.27 1008.47 1008.37 1008.97 1008.89 1009.95 1011.37 1012.39 1012.77 1013.44 1013.43 1014.07 1014.66 1015.02 1015.72 1016.82 1017.66 1018.28 1018.62 1018.60 1018.16 1017.70 1016.52 1016.74 1017.34 1018.39 1019.43 1019.95 1020.22 1020.53 1020.53 1020.59 1020.66
1009.11 1008.26 1008.01 1007.79 1007.70 1007.61 1007.74 1008.31 1008.86 1009.29 1008.98 1009.46 1009.45 1009.61 1008.99 1009.72 1010.45 1011.84 1013.41 1013.88 1013.81 1014.28 1014.70 1015.28 1016.11 1016.79 1017.50 1017.71 1018.08 1018.37 1017.84 1016.78 1016.41 1016.57 1017.12 1018.20 1019.07 1019.62 1020.06 1020.58 1020.53 1021.04 1021.36
1009.16 1008.73 1008.55 1008.43 1008.53 1008.59 1008.66 1009.18 1009.63 1009.52 1009.77 1009.61 1010.36 1010.75 1010.45 1010.24 1010.01 1010.77 1012.04 1013.43 1013.97 1014.19 1014.58 1015.34 1016.07 1016.30 1016.71 1016.77 1017.18 1017.04 1017.04 1017.00 1016.60 1016.87 1017.04 1017.52 1018.28 1018.62 1019.61 1020.52 1020.68 1020.76 1021.23
1009.26 1008.21 1008.41 1008.08 1008.07 1008.43 1008.83 1009.63 1010.20 1009.87 1011.23 1010.12 1010.08 1010.90 1010.36 1009.90 1009.51 1010.21 1011.62 1012.78 1013.62 1013.89 1014.43 1015.03 1015.34 1015.55 1015.41 1015.50 1015.73 1016.01 1016.08 1016.53 1016.28 1016.51 1016.87 1017.10 1017.67 1018.18 1018.90 1019.94 1020.50 1020.93 1021.37
1010.27 1009.84 1008.91 1008.68 1008.16 1008.47 1008.76 1008.86 1009.20 1010.79 1011.19 1010.68 1010.87 1009.99 1009.35 1008.93 1010.36 1011.07 1011.61 1013.12 1014.09 1014.29 1014.41 1014.86 1014.96 1014.99 1014.50 1014.48 1014.57 1014.93 1015.42 1015.95 1016.08 1016.23 1016.69 1017.13 1017.27 1017.63 1018.69 1019.08 1020.13 1020.60 1020.92
1010.82 1010.55 1010.25 1009.84 1009.25 1008.50 1007.94 1008.32 1008.58 1008.94 1010.08 1010.53 1011.10 1009.46 1009.45 1008.82 1009.78 1011.40 1013.00 1013.29 1014.92 1015.24 1014.70 1014.42 1014.56 1014.51 1013.96 1013.68 1013.84 1014.05 1014.60 1015.57 1016.01 1015.89 1016.32 1016.76 1017.01 1017.62 1017.80 1018.42 1019.06 1020.07 1020.85
1011.53 1011.26 1010.81 1010.36 1010.07 1009.81 1009.28 1008.85 1008.83 1009.02 1009.25 1009.83 1011.34 1011.22 1009.69 1009.22 1009.30 1011.68 1011.29 1013.52 1014.00 1013.75 1014.44 1014.54 1014.08 1014.28 1014.31 1013.60 1013.36 1013.62 1014.12 1015.05 1015.56 1015.52 1015.91 1016.44 1016.90 1016.89 1017.22 1017.75 1018.11 1018.76 1019.42
1012.07 1011.89 1011.52 1011.14 1010.66 1010.48 1010.30 1010.00 1009.51 1009.56 1009.99 1009.71 1011.18 1011.43 1008.53 1008.77 1011.42 1012.59 1013.12 1014.00 1013.93 1013.55 1013.75 1014.00 1014.22 1014.43 1014.27 1014.05 1013.66 1013.63 1014.17 1014.95 1015.46 1015.50 1015.61 1016.04 1016.45 1016.48 1016.63 1017.00 1017.61 1018.57 1018.89
1013.03 1012.51 1012.15 1011.59 1011.52 1011.23 1011.37 1011.27 1011.05 1010.96 1010.67 1010.42 1010.44 1010.61 1010.26 1011.43 1012.57 1013.06 1013.46 1013.43 1012.95 1012.82 1013.05 1013.31 1013.70 1014.00 1014.16 1014.22 1013.82 1013.64 1014.09 1014.58 1015.16 1015.19 1015.25 1015.61 1016.12 1016.08 1016.27 1016.49 1017.03 1017.80 1017.62
1013.95 1013.66 1013.14 1012.76 1012.32 1012.36 1012.48 1012.08 1012.07 1011.96 1011.59 1011.72 1011.89 1011.70 1011.97 1012.16 1012.73 1012.59 1012.45 1011.86 1011.37 1011.51 1011.98 1012.57 1013.09 1013.39 1013.75 1014.07 1013.88 1013.67 1013.74 1013.88 1014.52 1014.75 1014.90 1015.20 1015.63 1015.82 1015.97 1016.34 1016.60 1016.82 1017.14
1014.46 1014.13 1013.91 1013.90 1013.84 1013.92 1013.96 1013.53 1013.52 1013.47 1013.29 1013.16 1013.38 1013.52 1013.78 1013.87 1013.91 1013.31 1013.03 1012.35 1012.28 1012.28 1012.22 1012.51 1012.93 1013.21 1013.38 1013.81 1014.00 1013.84 1013.40 1013.45 1013.74 1014.25 1014.47 1014.87 1015.15 1015.35 1015.80 1015.81 1016.23 1016.42 1016.78
1015.44 1015.56 1015.51 1015.25 1015.63 1015.44 1015.25 1015.09 1015.00 1014.97 1014.90 1014.85 1014.86 1015.15 1015.06 1015.07 1015.15 1014.82 1014.32 1014.35 1013.83 1013.51 1013.52 1013.09 1013.01 1013.14 1013.44 1014.02 1014.40 1014.43 1013.98 1014.58 1013.97 1013.55 1014.12 1014.48 1014.66 1015.09 1015.39 1015.76 1015.88 1016.17 1016.46
1016.46 1016.77 1016.76 1016.58 1016.82 1016.73 1016.44 1016.23 1016.30 1016.06 1016.10 1016.23 1016.14 1016.23 1016.31 1016.35 1016.13 1016.08 1015.52 1015.39 1015.17 1014.98 1015.15 1015.02 1014.77 1014.29 1014.26 1014.69 1015.23 1015.05 1015.19 1015.38 1014.91 1014.69 1013.92 1014.19 1014.56 1014.73 1015.19 1015.31 1015.55 1015.87 1016.20
1017.10 1017.59 1017.83 1018.05 1018.02 1017.70 1017.70 1017.43 1017.37 1017.19 1017.12 1017.22 1017.38 1017.52 1017.52 1017.45 1017.37 1017.26 1017.10 1016.72 1016.70 1016.71 1016.68 1016.62 1016.50 1016.46 1016.21 1016.30 1016.18 1016.02 1015.75 1015.34 1015.20 1015.35 1015.29 1015.25 1014.97 1014.77 1014.94 1015.02 1015.19 1015.48 1015.99
Thickness
5845 5843 5841 5837 5836 5832 5830 5830 5828 5827 5825 5821 5817 5814 5814 5815 5814 5806 5800 5794 5787 5784 5777 5768 5763 5756 5750 5746 5738 5726 5713 5701 5694 5686 5679 5661 5645 5631 5620 5610 5602 5597 5589
5851 5848 5843 5841 5838 5834 5831 5832 5830 5827 5826 5822 5818 5815 5814 5815 5813 5806 5800 5794 5787 5783 5776 5769 5761 5757 5750 5743 5739 5723 5709 5699 5688 5681 5668 5652 5636 5626 5612 5604 5597 5589 5583
5853 5848 5845 5842 5837 5835 5834 5833 5832 5829 5825 5823 5818 5815 5816 5814 5811 5807 5801 5793 5786 5784 5777 5769 5760 5754 5745 5739 5730 5717 5708 5701 5693 5682 5659 5646 5629 5618 5605 5594 5586 5580 5574
5853 5847 5843 5841 5838 5837 5837 5834 5831 5829 5825 5822 5820 5819 5818 5813 5811 5807 5799 5791 5786 5779 5774 5767 5759 5754 5745 5738 5728 5717 5705 5698 5693 5680 5661 5643 5629 5615 5602 5590 5581 5574 5569
5852 5846 5844 5844 5842 5838 5836 5833 5830 5829 5826 5823 5819 5819 5817 5813 5814 5807 5798 5789 5781 5774 5772 5767 5758 5747 5739 5732 5731 5713 5701 5693 5687 5677 5656 5640 5622 5609 5597 5587 5582 5571 5567
5851 5844 5843 5841 5839 5837 5834 5831 5828 5826 5825 5823 5818 5817 5813 5816 5815 5807 5799 5789 5780 5774 5767 5761 5753 5747 5738 5728 5718 5706 5695 5686 5676 5665 5653 5636 5617 5603 5597 5582 5576 5575 5569
5842 5842 5840 5838 5836 5836 5834 5831 5826 5823 5823 5820 5817 5815 5813 5814 5806 5801 5796 5790 5779 5772 5767 5761 5757 5750 5739 5728 5716 5709 5698 5684 5674 5664 5648 5631 5619 5604 5594 5585 5579 5574 5568
5835 5834 5835 5834 5833 5832 5830 5826 5824 5823 5822 5818 5814 5812 5811 5813 5803 5797 5792 5787 5779 5772 5768 5764 5760 5747 5743 5734 5728 5715 5702 5687 5677 5666 5647 5634 5623 5612 5604 5595 5586 5576 5571
5832 5833 5834 5832 5831 5829 5826 5824 5823 5822 5821 5818 5816 5812 5809 5806 5796 5795 5789 5783 5775 5770 5767 5764 5759 5748 5738 5732 5728 5718 5706 5689 5674 5665 5651 5637 5626 5618 5613 5604 5594 5589 5580
5829 5831 5833 5833 5831 5828 5828 5825 5824 5823 5820 5818 5815 5817 5812 5802 5790 5792 5789 5787 5774 5769 5764 5761 5755 5750 5737 5729 5726 5718 5710 5697 5682 5670 5657 5645 5632 5622 5617 5614 5608 5603 5596
5817 5824 5828 5829 5827 5826 5826 5825 5822 5820 5819 5815 5816 5814 5811 5805 5789 5786 5787 5789 5778 5770 5764 5759 5758 5746 5735 5727 5721 5719 5707 5699 5688 5681 5671 5656 5642 5629 5622 5619 5613 5611 5609
5805 5810 5816 5820 5821 5825 5819 5819 5819 5817 5812 5811 5809 5807 5807 5800 5791 5782 5780 5777 5780 5770 5764 5761 5757 5744 5736 5727 5720 5715 5708 5703 5701 5688 5677 5664 5648 5633 5627 5619 5617 5612 5610
5796 5802 5806 5807 5808 5812 5810 5806 5805 5807 5807 5804 5805 5800 5803 5799 5788 5778 5774 5771 5772 5766 5762 5760 5752 5742 5734 5725 5718 5713 5709 5709 5710 5698 5686 5670 5654 5641 5631 5622 5619 5615 5609
5775 5787 5793 5795 5796 5801 5805 5800 5794 5791 5795 5789 5789 5787 5797 5796 5791 5778 5765 5760 5761 5759 5754 5751 5745 5740 5734 5730 5723 5715 5715 5719 5713 5703 5692 5678 5662 5652 5640 5629 5626 5619 5611
5770 5777 5780 5783 5782 5784 5786 5785 5782 5785 5785 5787 5780 5773 5775 5781 5786 5781 5772 5758 5753 5753 5752 5745 5739 5737 5735 5734 5728 5726 5722 5717 5713 5705 5696 5687 5674 5665 5649 5636 5631 5628 5619
5760 5774 5773 5778 5781 5780 5777 5771 5766 5771 5761 5774 5774 5767 5772 5775 5776 5772 5765 5757 5750 5747 5745 5739 5736 5736 5739 5739 5736 5731 5728 5720 5718 5710 5702 5694 5684 5674 5661 5647 5639 5632 5624
5742 5750 5763 5766 5773 5771 5771 5771 5770 5757 5751 5759 5759 5765 5769 5773 5761 5757 5756 5743 5737 5734 5734 5732 5732 5732 5739 5742 5741 5737 5730 5724 5721 5715 5705 5696 5691 5684 5669 5660 5645 5639 5635
5730 5733 5741 5748 5756 5766 5773 5771 5772 5769 5762 5758 5744 5757 5754 5764 5761 5751 5730 5724 5723 5718 5720 5727 5726 5728 5736 5739 5741 5740 5735 5725 5719 5718 5710 5703 5696 5687 5680 5670 5660 5647 5638
5714 5720 5729 5736 5741 5745 5754 5761 5761 5759 5756 5751 5735 5733 5745 5753 5755 5741 5747 5726 5720 5722 5715 5719 5722 5717 5719 5728 5735 5738 5735 5726 5720 5720 5714 5707 5700 5696 5688 5680 5675 5664 5657
5702 5706 5713 5721 5728 5732 5736 5741 5746 5746 5738 5741 5728 5725 5753 5754 5738 5733 5723 5713 5716 5719 5718 5717 5716 5711 5713 5717 5723 5728 5727 5720 5717 5716 5714 5710 5705 5702 5696 5689 5682 5670 5664
5683 5693 5700 5712 5712 5717 5718 5722 5725 5727 5729 5731 5733 5733 5736 5732 5722 5717 5714 5715 5721 5724 5723 5722 5717 5713 5712 5713 5716 5719 5720 5717 5714 5715 5715 5711 5706 5704 5702 5697 5689 5679 5681
5666 5673 5683 5694 5700 5702 5705 5710 5713 5715 5719 5719 5721 5724 5719 5719 5718 5719 5718 5727 5735 5734 5730 5724 5718 5715 5712 5708 5709 5713 5714 5716 5714 5713 5714 5712 5708 5705 5704 5698 5694 5690 5687
5655 5662 5668 5673 5681 5682 5686 5693 5697 5700 5705 5707 5705 5704 5701 5701 5700 5707 5710 5718 5720 5721 5722 5720 5714 5711 5709 5705 5704 5703 5709 5712 5715 5713 5712 5711 5709 5707 5703 5701 5696 5694 5690
5641 5644 5649 5657 5655 5661 5668 5673 5677 5680 5684 5686 5687 5684 5686 5685 5685 5690 5695 5693 5699 5704 5706 5707 5707 5705 5702 5695 5694 5691 5698 5699 5705 5712 5710 5709 5709 5706 5704 5699 5698 5694 5692
5625 5625 5630 5637 5637 5642 5649 5655 5658 5662 5665 5665 5668 5670 5669 5670 5672 5675 5682 5681 5684 5687 5687 5688 5690 5692 5689 5683 5679 5684 5687 5689 5691 5697 5705 5706 5705 5706 5702 5700 5700 5695 5691
5612 5612 5613 5615 5619 5625 5629 5635 5642 5645 5647 5649 5650 5652 5654 5656 5658 5660 5663 5667 5667 5667 5669 5670 5671 5670 5671 5667 5669 5673 5678 5683 5683 5683 5686 5691 5696 5699 5700 5698 5697 5696 5690